Location: Vesunti
(61.5000°N, 22.8333°E)
Time: 18:14:36
(UTC+00:00)

ALOS - Pass Details

Date: 17 February 2020
Orbit: 683 x 685 km, 97.8° (Epoch: 06 April)

Event Time Altitude Azimuth Distance (km) Brightness Sun altitude
Rises 05:08:24 0° 16° (NNE) 3,068 5.7 -7.6°
Reaches altitude 10° 05:10:44 10° 10° (N) 2,148 4.8 -7.4°
Maximum altitude 05:15:08 41° 300° (WNW) 993 2.7 -6.9°
Drops below altitude 10° 05:19:31 10° 231° (SW) 2,134 4.5 -6.4°
Sets 05:21:50 0° 225° (SW) 3,046 5.3 -6.1°
